Wind_Speed
19 19 19 19 20 20 20 20 20 20 19 19 18 18 17 17 17 16 15 15 14 13 13 12 12 11 11 11 11 11 11 11 11 11 11 11 11 11 10 10 10 9 9 9 9 9 9 9 9 10 11 12 12 13 14 14 15 15 15 15 15 14 14 14 13 13 14 14 15 15 14 14 14 14 15 15 15 16 17 18 17 17 18 18 18 18 18 18
21 21 20 20 20 20 20 20 20 20 20 20 19 19 18 18 18 18 17 17 16 15 15 14 14 14 13 13 13 13 13 13 12 13 13 12 12 12 12 12 12 11 11 11 11 11 11 11 11 11 11 12 12 13 14 15 16 16 16 16 16 15 15 15 14 14 15 15 15 15 15 14 14 14 14 14 15 15 16 16 16 17 18 18 18 19 19 19
26 25 24 24 23 22 22 22 21 21 21 21 21 21 20 20 20 19 19 19 18 18 17 17 16 16 16 15 15 15 15 15 14 14 14 14 14 14 14 14 14 13 13 13 13 12 12 12 12 12 12 13 13 13 14 15 16 17 17 17 18 17 17 17 16 16 16 16 16 16 16 15 14 14 14 14 14 14 14 15 15 16 17 17 18 19 19 20
29 29 28 28 27 27 26 25 25 24 24 24 23 23 23 23 22 22 21 21 21 20 20 19 19 18 18 18 18 17 17 17 17 17 16 15 15 15 15 15 15 15 15 15 15 15 14 14 14 14 14 14 14 14 14 15 16 16 17 17 18 18 18 18 18 17 17 17 17 17 17 16 15 15 15 14 14 14 14 14 14 15 16 17 17 18 18 19
32 32 32 31 31 30 30 30 29 28 28 27 27 26 26 26 25 25 24 23 23 23 22 22 21 21 21 20 20 20 20 20 19 19 18 17 17 17 17 17 17 16 17 17 17 16 16 16 16 16 15 15 15 15 15 16 16 16 17 17 17 18 18 19 19 19 19 18 18 18 18 18 17 16 16 15 15 15 15 15 15 15 16 17 18 18 18 19
34 34 34 34 34 33 33 33 33 32 31 31 30 30 29 29 28 28 27 26 26 25 25 24 24 24 23 23 22 22 22 22 21 21 21 20 20 19 19 19 18 18 18 18 18 18 18 18 18 18 17 17 17 17 17 17 17 17 18 18 18 18 18 19 19 19 19 19 19 19 19 19 19 18 17 17 17 16 16 16 15 16 17 17 18 19 19 20
35 36 36 36 36 36 36 36 35 35 34 34 33 33 32 31 31 31 30 29 29 28 27 27 26 26 26 25 25 24 24 24 24 24 24 23 23 22 22 21 20 20 20 20 20 20 20 20 20 19 19 19 19 19 19 18 18 18 19 19 19 19 19 19 19 19 19 19 19 19 19 19 20 20 19 19 18 18 17 18 18 18 18 19 19 20 20 21
36 36 37 37 37 37 38 38 38 37 37 36 35 35 35 34 33 33 32 32 31 30 30 29 29 28 28 27 27 26 26 26 26 26 26 26 25 25 24 23 23 23 23 23 22 22 22 22 21 21 21 21 21 21 21 20 20 20 20 21 21 21 21 20 19 19 19 19 19 19 20 19 20 21 20 19 19 19 19 20 20 21 21 21 21 21 22 22
35 36 37 37 38 38 39 39 39 39 39 39 38 37 37 36 36 35 35 34 33 33 32 31 31 31 30 30 29 29 29 28 28 28 28 28 28 27 26 26 26 25 25 25 25 24 24 24 24 23 23 22 22 22 22 22 22 22 22 22 23 23 23 23 22 21 20 20 19 19 20 20 20 22 21 20 20 20 21 21 22 23 23 24 24 24 24 24
34 35 36 37 38 39 39 39 40 40 40 40 40 39 39 39 38 38 37 36 36 35 34 34 33 33 32 32 32 32 31 30 30 30 30 30 29 29 29 28 28 27 27 27 27 27 26 26 26 26 25 24 24 24 24 24 24 24 24 24 24 24 25 25 24 23 22 22 20 19 19 20 20 22 22 20 20 21 21 23 23 23 24 25 26 26 26 26
34 34 35 36 37 38 39 40 40 40 41 41 41 40 40 40 40 40 39 39 38 38 37 36 36 35 34 34 34 34 34 33 33 32 32 31 31 31 30 30 30 30 29 28 28 29 29 28 28 28 27 26 26 25 25 25 26 26 26 25 25 26 26 27 26 26 25 25 23 20 17 18 20 22 23 22 21 22 22 24 24 24 25 26 27 27 27 28
34 34 35 35 36 36 38 39 40 41 41 41 41 41 41 41 41 41 41 41 41 40 39 39 38 38 37 36 35 36 35 35 35 34 34 33 33 32 32 32 32 32 31 31 30 30 30 30 30 30 30 29 28 28 27 27 27 27 27 27 27 27 27 28 28 27 27 27 27 23 15 13 20 24 25 25 23 23 23 25 25 25 26 27 28 28 28 29
34 34 35 35 35 36 37 38 39 40 41 42 42 42 42 41 42 42 42 42 42 41 41 41 40 40 39 37 37 37 37 37 37 36 35 35 35 34 34 34 33 33 33 33 32 32 32 32 32 32 31 32 31 30 30 29 29 29 29 29 29 29 29 29 30 29 29 29 29 28 16 9 18 25 27 29 26 25 25 26 27 26 27 28 29 29 29 30
35 35 35 35 35 36 36 37 38 38 39 41 42 42 42 42 42 43 42 42 43 43 42 42 42 42 41 39 39 39 38 38 38 38 37 37 36 36 36 36 35 35 35 35 35 34 34 34 34 33 33 34 33 32 32 31 31 31 31 31 31 32 31 31 32 31 31 31 30 31 22 11 16 25 28 30 29 27 27 28 28 28 29 31 31 31 30 31
36 36 36 36 36 36 37 37 37 37 38 40 41 42 42 42 43 44 44 44 44 44 44 44 43 43 43 41 40 40 40 40 40 39 39 38 38 37 37 38 38 38 38 37 37 37 36 36 35 35 35 34 34 34 33 34 33 33 33 32 32 33 33 33 33 33 34 34 32 33 29 18 17 23 28 30 30 29 28 29 30 30 31 33 34 33 31 32
37 37 37 37 37 37 37 37 37 37 38 39 40 41 42 42 42 44 44 44 45 45 45 45 44 45 44 42 42 42 42 42 41 41 40 39 39 39 39 39 39 39 39 39 39 38 38 37 36 36 36 35 35 34 35 36 35 34 35 34 34 34 35 35 35 36 37 37 34 35 34 26 21 24 28 30 30 30 29 30 31 31 33 35 36 35 33 34
38 38 38 38 39 39 39 39 38 38 38 40 40 41 42 42 42 43 43 44 45 45 45 45 45 46 45 43 42 43 43 43 42 42 41 41 41 40 40 40 40 41 41 40 40 40 39 39 38 37 37 36 35 36 39 39 36 36 37 37 36 36 37 36 37 39 40 39 37 37 37 31 27 26 27 30 31 30 30 31 31 32 35 36 38 36 35 36
40 40 40 39 40 40 40 41 40 40 39 40 41 41 42 43 42 42 43 44 44 44 45 45 45 46 45 43 43 43 44 43 43 42 42 42 42 42 42 41 41 42 42 42 42 41 41 41 40 39 38 37 36 39 42 40 38 39 39 39 39 39 38 37 38 41 42 42 40 40 40 35 31 28 28 30 32 31 30 31 33 33 35 36 37 37 37 38
42 42 42 41 41 41 41 42 43 42 42 42 42 42 43 44 43 43 43 44 44 44 45 45 45 46 45 43 43 44 43 43 43 43 42 42 43 43 43 43 42 42 42 42 42 43 43 43 42 41 39 38 40 43 43 41 41 41 41 42 42 41 40 37 40 43 44 45 42 41 44 40 34 31 29 31 33 32 31 32 34 34 35 37 38 37 38 39
45 45 44 43 43 42 43 44 45 44 44 44 45 45 44 45 45 44 43 44 44 45 45 46 46 45 44 44 44 44 43 43 43 43 42 43 43 43 43 43 43 43 42 42 43 43 44 45 42 40 40 41 43 44 44 43 43 43 43 43 43 43 41 39 42 44 44 47 44 43 47 44 38 35 32 33 34 33 33 33 34 35 35 37 38 37 38 39
47 47 46 45 45 44 45 46 46 46 46 46 46 48 47 47 47 46 45 45 45 45 46 46 47 45 44 45 44 43 43 42 42 42 42 43 43 44 44 44 44 43 42 43 44 44 45 46 41 39 41 43 44 45 44 44 45 45 45 44 44 43 42 41 43 44 45 48 47 45 49 47 41 38 35 35 36 34 34 34 34 35 36 36 36 37 37 38
48 48 48 47 47 46 46 46 46 46 47 48 48 49 49 50 50 49 49 48 46 46 47 47 47 46 45 45 44 42 42 40 39 40 40 41 42 43 44 43 43 43 43 43 45 45 47 45 40 40 42 43 44 44 44 45 45 45 45 45 44 43 43 45 44 44 46 49 49 48 51 48 43 41 37 36 39 36 34 35 36 34 34 35 35 36 36 37
49 49 49 48 48 48 48 47 46 46 47 48 49 50 51 51 52 52 53 54 50 48 49 49 48 48 46 45 43 42 41 39 38 38 38 40 40 42 43 42 42 43 42 42 44 46 46 43 40 40 42 42 43 43 43 44 45 45 45 45 45 43 45 47 46 46 47 49 50 50 53 50 45 43 37 34 38 40 37 34 34 34 33 34 34 34 34 35
51 50 50 49 49 49 49 48 47 46 46 46 48 50 51 52 53 54 55 58 58 52 50 50 51 51 48 46 44 42 41 39 38 37 37 39 40 40 41 40 42 42 40 40 43 46 45 41 39 40 41 42 43 43 43 44 45 46 46 45 45 45 47 48 48 48 48 49 50 51 55 52 46 44 38 33 34 38 41 37 32 34 34 33 32 32 33 35
52 52 52 51 50 50 50 50 48 47 46 46 46 48 50 52 53 55 56 61 64 58 53 53 53 53 51 49 46 43 42 41 39 38 38 40 41 42 42 42 43 42 40 41 45 47 43 39 40 40 40 41 42 42 41 43 46 47 46 44 45 46 47 48 48 49 50 50 49 51 55 52 49 47 40 37 35 34 38 41 37 35 35 35 33 31 32 34
53 53 53 53 52 51 51 51 50 49 48 47 47 46 47 49 51 54 57 63 69 64 59 57 55 54 51 49 47 45 45 43 40 40 41 42 43 44 46 45 44 44 42 44 47 48 43 39 41 41 40 41 42 41 40 42 46 48 46 44 45 47 47 48 48 49 51 51 50 52 53 53 55 52 44 42 42 37 36 40 42 40 37 36 34 31 31 32
54 54 54 54 54 53 53 53 52 51 50 49 49 48 48 48 48 50 53 61 69 67 63 62 59 56 52 49 47 46 46 45 42 43 44 44 45 46 47 46 45 46 45 47 49 48 44 42 42 42 42 43 41 40 40 42 46 48 46 45 46 47 47 49 49 51 52 52 54 53 50 54 60 57 50 47 45 41 37 36 41 44 40 34 31 28 27 29
54 54 54 54 54 55 54 54 54 53 52 51 50 50 50 49 48 49 51 60 68 67 63 62 61 58 54 50 47 45 45 45 44 45 44 45 46 46 47 47 46 48 48 49 51 49 46 45 45 44 44 43 42 41 42 44 46 48 48 47 48 48 48 50 51 52 53 53 56 52 47 55 63 61 57 51 44 41 39 35 37 43 40 32 28 27 27 30
54 54 54 54 54 55 55 55 55 55 54 53 52 52 51 50 50 50 53 62 68 66 62 58 56 56 55 52 49 46 46 45 46 47 45 46 47 47 47 46 47 48 48 50 51 49 47 47 46 46 45 43 43 44 45 46 48 49 49 49 50 50 50 51 52 53 53 55 56 51 48 56 62 62 58 51 44 43 41 36 33 36 37 32 29 29 31 33
55 55 54 55 55 55 55 55 56 56 55 55 54 54 53 53 52 53 59 66 67 64 61 58 54 53 52 50 49 48 48 47 48 47 47 47 46 47 47 47 47 48 48 49 49 47 46 47 47 46 45 44 45 46 46 48 48 48 49 50 50 51 51 52 53 53 54 56 56 52 51 57 61 61 56 50 47 46 42 37 33 32 34 34 34 35 35 34
56 56 56 56 56 56 56 56 56 56 56 56 56 55 55 55 55 59 67 68 64 62 61 59 55 51 49 48 47 47 47 48 48 48 48 48 48 49 48 47 48 48 49 50 48 46 46 47 46 45 44 45 45 45 46 47 47 47 48 49 50 51 53 54 54 54 56 58 58 56 56 60 63 60 55 52 50 47 44 39 34 32 33 36 39 39 36 35
57 57 57 57 57 57 57 57 57 57 57 57 57 57 56 57 60 65 69 66 62 62 59 57 56 53 51 49 47 46 46 46 47 48 48 49 50 51 50 49 49 49 51 50 48 47 48 47 46 46 45 44 44 44 45 45 45 46 47 48 49 52 54 55 55 56 58 60 60 60 62 64 62 58 54 53 51 48 46 42 36 33 34 38 41 40 37 38
59 59 58 58 58 58 58 58 58 58 58 58 58 58 57 60 65 68 66 62 61 60 58 57 57 55 54 52 50 49 48 47 47 48 49 50 52 53 52 52 51 50 51 51 49 50 50 49 48 46 44 44 43 43 44 45 45 47 48 49 51 53 55 56 57 59 62 63 62 63 66 64 60 56 54 55 54 49 47 43 38 37 37 38 41 41 40 43
62 61 61 61 60 60 60 60 60 60 60 60 60 59 60 65 68 67 64 61 60 59 59 59 58 57 56 56 54 52 50 49 48 48 49 51 53 54 53 52 51 50 50 50 51 51 51 52 50 46 45 45 45 44 45 46 48 51 51 52 54 55 54 56 60 63 65 65 65 66 67 63 60 58 58 61 60 52 47 43 40 39 39 39 40 41 43 46
66 65 64 63 63 63 63 63 63 63 63 63 63 64 65 67 67 65 64 62 61 60 60 60 59 58 58 58 57 55 53 52 50 50 50 51 52 53 54 53 52 50 50 51 51 50 52 54 52 50 49 48 48 48 48 50 53 55 55 57 58 56 54 57 62 65 65 66 65 66 66 62 61 62 62 65 63 55 49 45 43 43 43 42 41 41 44 46
68 67 66 65 65 66 67 67 66 66 66 65 66 67 66 64 64 64 64 63 63 62 62 61 60 60 60 60 59 57 55 55 53 53 53 52 52 52 53 53 52 51 51 50 50 50 52 55 54 54 54 53 52 53 53 54 56 58 59 59 59 58 58 61 64 63 64 66 64 64 66 64 63 64 64 65 64 57 51 48 47 47 45 44 42 42 44 45
69 68 68 65 65 68 70 69 68 70 70 70 70 68 66 65 64 64 64 64 64 64 64 63 61 60 60 59 59 58 57 57 57 57 56 55 55 54 54 54 52 52 51 49 49 51 53 55 56 56 57 56 55 55 55 56 57 57 57 56 56 58 60 60 61 60 60 64 64 64 67 67 67 68 66 65 64 58 53 52 51 48 45 43 42 42 42 43
72 73 70 65 64 68 71 71 72 73 74 75 73 68 68 68 66 64 64 63 62 63 64 63 61 60 59 58 57 57 57 58 58 58 58 58 59 57 55 55 54 52 50 49 50 51 52 54 56 56 57 57 56 56 57 57 57 56 55 54 55 58 59 58 58 58 58 63 67 67 68 70 70 69 67 65 62 60 57 55 53 49 46 44 43 41 42 43
73 75 74 69 67 69 72 74 75 76 77 76 72 67 66 66 66 66 65 62 61 61 62 62 61 60 59 58 58 56 56 57 56 57 58 59 59 58 56 56 55 53 50 50 52 53 53 56 57 58 58 59 59 60 60 58 58 58 58 59 59 60 60 59 60 61 61 64 68 68 69 71 69 68 68 63 58 57 55 51 50 50 49 46 44 43 43 45
70 73 75 73 71 70 72 75 79 81 82 79 74 72 70 70 70 68 66 64 63 63 62 62 62 62 62 61 60 57 57 58 57 57 59 59 59 58 57 57 56 54 53 53 55 56 56 58 60 59 60 61 61 59 58 57 58 61 61 62 63 63 63 63 63 65 65 65 66 68 70 71 70 71 69 61 54 52 50 47 48 50 49 45 43 44 45 47
70 74 76 77 77 74 73 76 79 80 82 80 77 75 74 73 72 71 70 70 69 68 68 67 67 67 66 66 64 62 61 61 60 61 62 61 60 60 59 57 56 55 55 57 58 58 59 60 60 60 62 61 59 57 58 60 61 62 63 63 64 64 64 66 68 67 66 66 66 68 73 73 73 73 69 62 56 52 49 47 48 49 48 45 45 46 47 49
70 69 68 70 75 76 76 77 77 76 79 79 77 76 76 75 74 74 74 74 74 73 72 72 72 71 71 70 68 67 66 66 66 66 66 65 63 62 60 58 58 58 59 60 59 59 61 62 61 62 61 59 59 60 63 65 65 66 66 65 64 64 65 67 69 66 65 67 67 70 76 76 74 71 66 60 57 55 51 49 49 49 48 46 48 52 53 53
68 65 62 63 66 69 72 73 72 73 78 78 76 75 75 76 77 77 77 76 76 76 75 75 74 74 73 73 72 71 71 72 72 72 71 70 68 65 63 63 64 64 63 63 61 59 60 62 62 62 62 61 62 65 67 69 70 70 68 64 63 63 63 64 66 65 66 69 71 74 79 78 74 68 61 57 57 56 52 49 48 48 48 49 53 56 57 56
65 61 60 61 62 66 70 71 70 70 72 72 72 73 73 74 76 77 77 77 76 75 76 76 75 75 74 73 72 73 73 74 75 74 73 72 71 68 67 66 66 66 66 65 63 61 62 63 63 63 64 66 67 69 71 71 70 67 64 62 62 62 62 64 66 67 71 73 72 76 80 77 71 63 56 55 55 53 47 45 46 49 51 53 56 56 56 56
71 66 62 60 60 64 69 70 71 72 70 69 69 70 69 70 71 71 72 73 73 73 74 74 73 73 71 70 70 71 72 73 73 73 71 71 71 70 70 69 67 67 67 66 66 66 66 66 66 67 69 71 70 70 68 66 65 64 62 62 63 63 64 66 67 69 74 75 73 76 79 76 66 57 55 53 51 48 45 46 49 51 53 56 56 55 55 57
80 76 72 67 65 67 67 67 70 73 73 73 73 72 70 70 69 68 68 69 70 71 72 72 71 70 71 72 72 73 72 70 69 69 69 69 70 70 70 69 67 67 67 66 66 67 67 68 68 69 71 71 69 66 63 62 64 65 63 63 64 64 64 66 68 72 75 75 74 73 74 73 65 58 57 55 51 49 48 48 50 52 55 57 57 55 56 59
85 83 79 75 73 74 72 69 70 72 73 73 75 76 75 74 72 71 71 71 70 70 70 70 69 70 71 72 72 73 71 70 71 71 70 69 69 70 71 70 69 68 67 66 66 67 69 70 69 69 71 70 69 66 63 64 67 67 65 65 65 64 65 67 71 74 72 74 77 71 69 73 70 64 62 60 55 54 53 52 52 54 57 59 59 57 58 60
93 92 89 87 84 83 80 75 73 74 75 74 75 75 77 79 79 76 74 73 72 71 70 69 69 70 70 70 71 72 71 70 72 71 69 68 68 69 70 69 67 65 64 65 65 66 69 71 69 70 72 71 70 68 66 67 69 68 67 67 66 65 66 70 74 75 73 77 80 73 70 75 73 68 65 62 58 58 56 53 53 55 58 59 59 59 60 62
100 99 97 96 96 93 86 78 75 77 78 78 78 77 76 79 81 78 75 75 75 73 72 72 71 70 71 70 70 71 70 69 69 68 66 66 66 66 67 66 65 63 63 65 66 67 71 73 71 71 73 72 70 69 67 68 70 71 70 70 68 68 70 74 76 76 75 78 79 76 75 76 73 69 66 63 60 60 57 53 54 55 56 57 59 60 62 63
101 101 98 95 95 94 90 85 83 84 85 85 86 83 80 80 81 81 80 81 80 77 75 76 75 74 73 71 70 71 71 70 70 70 68 68 67 66 66 67 67 67 69 70 72 74 75 75 73 73 75 76 73 71 70 70 72 73 73 71 71 71 73 75 75 73 73 76 77 75 76 77 72 68 66 63 63 61 58 57 59 59 57 58 61 63 64 65
99 100 99 95 93 94 93 90 88 88 89 92 93 91 90 88 85 83 83 85 85 84 84 83 80 79 78 78 78 78 76 74 74 73 71 72 73 73 73 72 71 72 73 73 73 74 73 72 72 72 76 78 74 72 71 69 70 71 70 69 69 68 69 70 70 71 72 76 76 76 78 78 73 68 67 66 65 64 62 63 64 62 61 63 65 65 64 63
98 100 101 99 97 97 96 92 90 89 90 91 92 92 92 90 88 87 87 87 86 85 85 86 85 85 86 85 84 81 79 80 82 82 78 75 75 76 78 77 76 75 74 72 70 68 68 69 69 69 75 76 72 70 67 62 63 65 65 64 61 61 65 68 70 71 72 74 75 76 77 75 70 68 69 68 66 65 65 64 63 62 62 64 64 62 61 60
Wind_Direction
252 250 249 248 247 248 249 250 253 255 258 260 263 265 268 271 274 277 279 280 282 283 284 285 286 287 288 290 294 297 301 306 311 315 319 321 322 325 325 322 318 315 313 316 320 323 327 329 329 331 331 329 329 328 327 326 325 323 322 322 323 325 325 324 322 319 317 315 315 313 312 309 306 304 301 299 298 298 297 300 304 303 299 299 298 296 294 294
257 257 256 256 255 255 254 255 256 257 259 261 263 265 266 268 271 274 276 278 279 280 281 282 283 284 284 285 286 288 292 295 299 303 306 309 314 318 320 319 318 316 311 309 311 315 320 322 325 328 328 326 326 326 324 324 323 322 321 320 320 321 321 322 322 321 321 320 318 317 315 313 312 310 308 308 308 307 308 310 309 302 298 297 296 295 295 294
256 257 258 259 260 260 260 260 260 261 261 263 264 266 267 267 268 270 272 275 276 278 278 279 280 280 281 282 281 282 284 286 289 292 296 300 304 309 311 313 314 315 313 308 304 304 308 312 317 321 322 324 325 323 322 321 320 319 319 319 318 319 319 319 319 319 320 321 321 320 318 316 315 313 313 316 316 315 316 315 311 305 303 301 299 298 296 294
254 255 256 258 259 260 261 262 262 263 263 264 265 266 267 268 268 269 270 271 273 275 276 277 278 278 279 279 279 280 279 280 283 285 288 290 295 299 301 304 307 309 310 309 305 302 302 304 308 312 315 318 320 320 320 319 317 315 315 316 316 316 316 316 317 317 317 318 319 320 321 320 319 317 317 318 317 317 315 314 314 311 309 307 305 303 300 298
255 255 255 256 257 258 259 260 260 261 262 263 264 265 266 267 267 268 268 269 270 271 273 274 275 276 276 277 277 278 278 278 280 281 282 284 287 289 291 294 298 300 303 305 305 304 302 302 303 305 308 311 313 314 316 315 314 312 312 313 313 313 313 314 315 314 314 314 315 317 318 319 320 321 320 319 319 319 316 316 316 312 310 308 306 304 302 301
257 257 257 257 257 258 258 258 259 259 260 260 261 262 263 264 266 266 267 267 268 268 269 271 272 272 273 274 275 276 276 276 277 279 279 281 282 283 284 287 290 293 295 296 299 300 301 302 302 302 303 304 305 306 308 309 310 310 310 311 311 310 310 311 312 312 312 311 312 313 314 315 317 318 319 318 319 320 318 317 316 314 311 309 308 307 306 304
259 259 259 259 259 259 259 260 260 260 260 260 260 261 261 262 263 265 265 266 266 266 267 268 269 269 270 271 271 272 273 273 274 275 277 278 278 279 281 282 284 287 289 291 293 295 297 298 299 300 300 301 301 301 302 305 307 308 308 309 309 309 309 308 309 310 310 310 310 311 311 313 313 313 314 314 316 317 317 316 315 315 312 311 311 311 310 309
259 260 261 261 261 262 262 262 262 262 262 262 262 262 263 263 262 263 264 264 265 266 266 266 267 267 268 269 269 269 269 270 271 272 273 274 275 276 278 279 281 283 285 286 288 290 292 293 295 296 297 299 300 300 300 301 303 305 305 306 306 307 308 307 307 307 308 308 309 310 310 313 312 309 309 310 311 312 313 313 313 313 312 311 311 311 311 311
259 260 260 261 262 263 263 263 264 264 264 264 264 265 266 266 266 265 265 265 265 265 266 266 267 267 268 268 268 268 268 269 269 270 271 271 273 274 275 277 278 280 282 283 284 286 287 289 291 292 294 296 297 299 299 299 300 301 302 303 303 304 306 306 306 305 305 305 307 309 310 314 312 306 306 309 309 310 311 311 311 311 311 310 310 310 310 310
259 259 260 260 261 262 263 264 264 265 265 265 266 266 267 268 268 268 268 268 267 267 266 266 267 267 268 268 269 269 269 269 269 269 269 270 271 273 274 275 277 278 279 281 281 283 285 286 288 289 290 292 293 295 297 298 299 299 299 300 301 302 303 303 303 304 304 303 304 307 310 316 311 303 305 308 308 309 310 310 310 311 310 309 308 308 308 307
260 260 260 260 261 261 262 263 263 264 265 266 266 266 267 268 269 269 270 270 269 269 268 268 268 267 267 268 268 269 270 270 270 270 270 270 271 272 273 274 276 277 278 279 279 281 282 284 285 287 288 289 290 291 293 295 296 297 298 298 299 300 301 301 301 302 302 301 302 303 312 318 310 302 304 306 308 309 310 310 310 311 310 308 307 307 307 305
262 262 262 261 261 261 262 262 263 264 264 265 266 266 267 267 268 269 269 270 270 270 270 270 269 269 268 268 268 268 269 270 270 271 272 272 272 273 273 274 275 276 277 278 279 280 281 283 284 285 287 288 288 289 290 291 292 294 295 296 298 298 299 300 299 299 299 299 299 300 312 319 307 305 306 306 308 310 310 309 309 310 308 307 306 307 307 305
263 263 263 263 263 262 262 263 263 264 264 265 265 265 266 266 267 268 268 269 270 270 271 271 271 271 270 270 270 270 270 271 271 271 272 273 273 274 275 275 276 277 278 278 279 280 281 282 282 284 286 286 287 288 289 289 290 290 292 294 296 296 298 299 299 298 296 296 297 298 305 316 304 304 304 305 308 309 309 307 307 308 307 306 305 307 308 306
262 263 264 264 264 263 263 263 264 264 265 265 265 265 266 266 266 267 268 268 269 270 270 271 271 272 272 273 273 273 273 273 273 273 273 274 274 275 276 276 277 277 278 279 280 280 281 282 282 283 284 285 287 287 288 289 288 288 290 292 294 294 296 297 298 298 295 294 294 294 297 304 303 301 300 303 306 308 309 307 306 307 305 304 304 305 306 304
262 263 263 264 264 264 264 264 265 265 265 266 266 266 266 266 266 267 267 268 268 269 269 270 271 271 272 273 274 275 275 275 275 275 275 276 277 277 277 277 278 278 278 279 280 281 281 282 283 283 283 285 286 287 288 287 286 288 290 290 291 292 293 294 296 297 295 292 292 292 292 296 301 299 299 302 305 308 310 309 307 307 305 303 302 302 303 302
261 262 263 263 264 265 265 265 265 265 266 266 267 267 267 267 266 266 267 267 267 268 269 269 270 271 272 272 273 275 275 276 276 277 278 278 279 279 279 278 279 279 279 280 280 281 282 282 282 282 283 285 286 288 286 284 286 289 289 289 290 290 291 292 294 294 293 291 291 291 291 293 297 296 297 300 303 306 309 308 307 306 304 302 300 301 301 300
262 263 263 264 264 265 266 266 266 266 266 266 267 267 268 267 267 267 267 267 267 268 268 269 270 270 271 272 273 274 275 276 277 278 279 279 280 279 279 279 280 280 280 280 281 281 282 282 282 282 283 286 288 287 284 285 288 289 288 289 289 290 290 292 293 292 290 290 290 289 289 291 293 294 296 298 300 303 306 307 305 303 301 300 299 299 299 297
263 264 265 265 265 266 266 266 266 266 266 266 266 266 267 268 267 267 268 268 268 268 268 269 269 270 271 272 272 273 274 276 277 278 279 280 280 279 279 280 280 280 280 280 281 281 281 281 282 282 285 287 287 284 284 288 289 287 288 289 289 289 289 292 292 289 289 288 289 289 289 289 290 292 295 295 297 300 304 304 302 300 299 298 297 298 296 294
264 265 266 266 267 267 267 266 266 265 265 266 266 266 267 268 268 268 268 268 268 269 269 269 269 270 271 271 272 273 274 276 277 278 279 280 280 280 280 280 280 280 280 281 280 280 280 280 281 283 285 285 283 283 286 288 287 287 288 288 288 288 289 291 289 288 289 288 289 290 289 289 290 292 294 294 295 298 302 301 299 298 298 297 296 296 293 292
264 265 266 267 268 268 268 267 267 266 266 266 267 267 266 267 268 268 268 268 268 268 269 269 268 269 270 271 272 273 274 276 277 279 280 280 281 281 280 280 280 280 281 281 280 280 280 279 281 284 284 282 282 284 285 286 286 287 287 287 287 288 289 290 287 287 288 288 289 290 288 289 291 293 295 295 295 298 300 298 297 297 297 297 297 295 293 292
263 264 265 266 267 268 269 270 269 268 267 266 266 267 267 268 268 268 268 267 267 268 268 268 269 269 270 270 271 272 273 274 276 278 279 280 281 281 281 281 281 280 281 280 279 280 280 280 282 284 282 281 282 283 284 285 285 286 286 286 287 288 289 288 286 287 288 288 289 290 288 289 291 293 295 296 295 297 298 296 295 296 297 298 297 296 295 294
262 263 264 265 266 268 269 271 271 269 268 267 266 267 267 268 269 269 269 267 266 267 268 267 268 269 268 269 270 271 272 274 276 277 279 280 280 281 281 281 281 281 280 280 281 281 279 281 284 282 280 281 282 283 284 285 285 286 287 287 287 289 289 287 286 288 288 288 289 290 288 289 291 292 294 297 297 297 296 295 296 297 298 298 297 297 296 294
260 261 262 264 265 267 269 270 271 271 270 268 267 267 267 268 268 269 270 270 267 265 266 268 268 268 267 268 269 270 272 275 276 278 280 281 281 281 281 281 281 280 280 281 282 280 280 282 284 282 281 282 282 283 284 285 285 286 286 287 289 290 289 287 288 289 288 289 291 291 290 290 291 291 293 296 298 299 296 294 296 298 299 299 299 299 297 293
260 260 261 262 263 265 268 270 271 272 272 271 269 268 267 268 268 269 270 271 269 265 265 266 267 267 267 267 268 270 273 275 275 277 279 280 280 281 281 281 280 280 282 282 281 279 280 283 283 282 282 282 282 283 284 285 286 286 286 288 289 289 288 288 290 290 289 290 292 293 292 291 292 291 292 294 296 298 298 299 300 301 300 299 300 301 298 294
259 260 260 261 262 263 266 268 270 271 272 272 271 270 269 268 268 269 270 271 270 268 265 264 264 266 267 269 270 272 273 273 275 277 277 277 279 279 280 280 280 281 283 282 280 279 281 283 283 283 283 283 283 283 284 286 286 285 286 288 288 288 288 289 290 291 291 291 293 294 294 295 295 293 294 298 298 298 301 305 308 305 303 302 302 300 294 289
259 259 260 260 261 262 263 266 268 269 271 272 272 272 272 271 270 270 270 271 270 269 267 264 263 264 265 268 270 272 273 274 276 276 276 276 276 277 277 278 280 281 281 280 279 279 282 284 283 283 283 282 282 284 286 286 285 284 286 287 287 287 288 289 290 291 291 293 294 292 295 299 296 293 298 303 301 302 305 308 309 307 306 305 302 296 289 282
259 259 259 260 260 261 262 264 265 267 268 270 271 271 272 272 272 272 273 272 271 270 268 267 265 265 265 266 268 269 272 276 276 274 274 274 274 275 276 277 278 278 278 277 277 279 283 283 281 282 281 281 282 285 285 283 282 284 285 285 285 286 288 289 289 290 291 293 292 291 297 299 294 294 299 300 300 305 308 309 308 307 308 306 300 292 284 278
260 260 259 259 259 260 261 262 264 265 266 267 269 270 270 271 272 273 273 272 272 271 270 270 271 270 269 268 268 269 271 274 273 272 272 272 273 274 274 275 275 275 275 275 276 279 280 279 279 279 279 281 283 283 282 281 281 283 284 285 285 286 287 287 288 289 290 291 290 294 300 297 293 294 297 297 302 306 307 310 308 306 308 306 298 290 284 282
261 260 260 260 259 260 260 261 262 264 265 266 267 268 269 269 270 271 270 269 270 272 273 275 276 277 277 276 274 272 271 271 271 271 271 271 272 272 273 273 273 273 273 273 274 276 278 279 278 277 278 280 281 280 280 279 279 281 284 285 286 286 286 286 286 287 288 289 291 297 299 294 293 293 293 298 305 305 306 311 308 304 304 302 297 292 289 289
260 261 261 260 260 260 260 261 261 262 263 265 265 267 267 267 268 268 266 265 268 273 277 278 279 281 283 283 280 276 272 270 270 271 271 271 271 271 270 271 271 272 272 272 273 276 277 277 277 278 279 279 278 277 277 278 279 281 283 284 285 285 284 284 284 285 286 288 293 296 295 292 290 290 294 302 305 304 307 310 310 306 301 299 298 296 296 295
261 261 261 261 261 261 261 261 261 262 262 263 264 265 265 266 266 264 263 266 270 273 276 279 282 283 284 284 282 279 276 272 269 269 270 270 270 269 269 269 270 270 270 271 274 276 276 276 277 278 277 276 276 277 277 278 279 281 282 282 283 282 282 281 282 283 285 289 293 293 291 289 286 288 296 301 301 303 306 308 311 308 302 301 301 300 300 297
263 262 262 262 261 262 261 261 261 261 262 262 262 263 263 264 263 262 264 268 271 273 276 280 282 283 282 282 282 282 279 275 271 268 267 267 267 268 268 268 268 269 271 273 275 275 274 275 275 274 275 277 278 278 278 278 279 279 279 279 279 279 279 280 282 285 286 288 290 290 289 286 285 288 295 297 298 301 303 307 311 307 304 304 302 301 300 295
265 264 264 263 262 262 262 262 262 261 261 261 261 262 262 262 263 264 266 268 271 275 279 279 280 281 281 281 281 280 278 276 273 270 266 265 265 265 267 268 269 271 273 275 274 274 273 273 273 275 276 277 276 276 277 277 277 276 275 275 275 275 276 280 285 286 285 287 288 288 287 285 287 292 295 294 295 297 301 307 308 305 306 305 301 299 296 293
266 265 265 264 264 263 263 263 262 262 261 261 261 262 261 262 265 268 269 270 272 274 276 277 279 281 281 280 279 278 278 277 275 274 271 267 265 265 267 268 270 271 272 273 273 273 274 273 274 275 275 274 274 275 275 274 274 273 273 273 273 274 277 280 283 283 284 286 287 285 284 285 290 294 295 294 293 297 303 305 303 305 307 304 298 295 294 294
266 265 265 265 265 264 264 263 263 263 262 262 261 260 261 264 267 270 272 273 273 273 274 276 277 278 278 278 279 279 280 279 278 277 274 270 268 267 267 268 269 270 271 272 273 274 275 274 274 275 274 273 273 273 272 272 272 273 274 274 275 278 278 278 279 281 284 285 284 282 283 287 291 293 293 292 294 300 304 302 303 307 306 301 295 295 296 297
266 266 265 265 265 264 264 263 263 263 263 262 261 261 265 269 270 270 272 273 274 274 275 275 276 277 277 278 279 280 280 279 278 277 275 273 271 269 269 269 269 270 271 272 274 274 275 274 274 275 275 274 273 272 272 272 273 274 275 277 279 280 278 276 277 280 282 282 281 283 286 290 291 290 290 291 295 300 302 302 306 307 303 299 297 297 299 296
268 268 267 266 265 264 264 264 264 263 263 262 262 262 266 268 269 270 272 272 274 275 276 276 276 275 276 276 277 276 276 276 275 275 275 275 273 271 270 270 270 270 272 274 275 274 274 274 273 273 274 274 273 274 274 273 273 274 275 278 279 278 277 277 278 279 280 279 280 284 288 289 289 288 289 292 295 299 301 305 308 305 300 299 297 297 297 291
269 270 269 267 267 265 264 264 263 264 264 262 263 263 264 266 268 270 271 271 272 273 274 274 273 272 273 273 274 273 273 273 273 273 274 274 274 273 272 271 271 271 273 275 275 274 275 275 273 271 273 274 274 274 272 272 273 275 277 277 276 277 277 277 278 279 279 279 280 284 287 287 286 287 289 291 295 299 304 307 306 301 299 299 296 295 293 286
270 269 268 268 269 267 265 264 262 262 262 262 264 266 265 267 269 269 269 268 269 269 269 269 269 270 271 271 272 273 274 274 273 274 273 273 273 273 273 273 272 272 273 274 275 276 276 275 274 273 274 274 274 272 272 275 276 276 275 274 274 274 275 276 276 277 278 278 280 284 286 285 285 286 287 290 297 303 305 305 301 297 296 297 296 294 291 284
269 270 269 269 268 266 266 265 262 261 262 263 265 266 266 267 268 268 268 266 265 265 265 267 267 268 270 271 272 273 275 275 275 274 273 272 272 272 273 273 274 274 274 273 274 274 273 273 273 273 273 273 274 276 278 279 277 275 274 273 272 272 274 275 275 275 276 276 279 282 283 285 288 288 289 295 303 306 304 300 297 294 294 296 296 293 288 282
267 266 267 268 267 267 266 265 263 263 264 265 265 266 266 267 268 268 267 265 263 263 263 264 265 267 270 271 272 274 275 274 274 273 271 271 271 272 273 274 275 275 273 272 272 272 272 271 270 270 271 274 277 279 278 276 274 274 274 273 273 274 274 274 274 276 277 277 280 279 278 283 288 289 293 300 304 304 302 298 295 293 293 294 294 292 287 281
256 256 259 262 263 264 263 262 262 263 264 266 266 265 265 266 267 267 266 264 263 263 264 265 266 267 269 270 272 272 272 272 272 272 271 271 270 271 273 274 275 275 274 272 272 273 273 271 270 272 274 276 276 275 274 274 274 273 273 274 276 277 277 277 277 280 280 277 277 275 273 279 285 287 292 298 299 299 298 297 294 292 291 293 293 291 287 283
247 249 252 254 256 258 258 259 260 261 262 264 265 264 263 263 263 264 264 263 262 263 264 265 266 267 268 269 270 270 271 272 271 271 272 272 271 272 273 274 275 276 275 274 274 274 273 273 274 275 276 275 274 274 274 274 274 275 278 280 280 279 279 279 279 279 276 274 274 273 272 277 282 286 291 295 294 294 295 295 292 288 289 291 290 288 285 283
244 248 251 252 253 253 252 253 256 258 261 262 262 261 261 260 259 260 262 262 262 262 264 265 266 267 267 268 269 270 271 271 271 271 271 272 272 272 273 274 274 275 275 275 275 273 271 271 272 273 273 272 273 274 275 277 279 280 281 280 278 277 276 275 275 275 274 274 275 274 274 279 285 289 293 294 292 292 295 294 289 286 288 288 285 283 281 280
244 247 250 252 255 254 252 252 253 255 256 257 258 258 258 258 257 258 259 260 261 262 263 264 265 266 268 269 269 268 268 269 270 271 272 273 274 273 273 273 273 274 274 274 273 271 270 269 269 269 269 270 273 276 278 280 280 278 277 276 274 274 273 274 275 274 275 277 277 276 279 285 290 293 294 293 292 294 297 293 288 287 287 285 283 281 278 278
242 245 249 251 254 256 255 253 254 254 254 254 254 254 255 257 257 257 257 257 258 260 262 264 265 266 267 267 267 267 267 269 271 272 272 273 274 275 274 274 274 273 273 272 272 271 270 269 269 268 269 270 273 275 277 276 274 273 274 274 273 273 273 273 273 274 277 280 279 280 286 290 293 296 294 292 294 298 297 291 288 287 285 284 284 280 277 279
241 243 245 248 253 256 255 252 252 253 253 253 254 253 253 254 255 256 256 257 257 259 261 264 264 265 265 265 266 267 268 270 271 272 272 273 274 275 275 275 274 273 273 272 271 270 269 269 269 269 269 270 271 273 274 272 270 270 272 272 273 273 272 272 274 277 280 279 279 285 291 290 291 294 292 292 296 298 295 290 286 284 283 284 282 279 278 280
248 248 247 248 253 256 255 252 251 253 254 254 255 254 253 254 253 253 255 257 257 257 259 261 262 262 263 264 267 269 270 272 273 274 274 274 274 274 274 275 275 273 272 270 268 267 267 267 268 269 270 271 271 272 272 270 268 269 270 271 272 272 273 275 277 279 279 279 283 289 291 288 289 291 292 293 296 295 292 288 285 284 284 283 280 277 278 280
253 256 256 255 257 259 259 258 255 255 256 257 257 256 254 253 253 253 254 256 256 254 256 258 259 260 261 262 266 269 269 270 271 272 272 272 271 271 272 272 271 270 268 267 266 266 266 267 269 270 271 271 270 270 269 268 267 269 270 271 271 273 274 275 275 277 280 282 286 289 287 285 287 290 291 293 293 292 289 287 286 287 286 282 277 275 276 280
253 257 261 262 262 263 263 262 261 260 259 258 259 258 255 253 252 252 253 254 255 255 255 256 257 257 258 260 263 265 265 266 268 268 269 270 271 270 269 268 266 265 265 265 266 267 267 268 269 270 270 268 268 270 270 268 268 268 268 268 271 274 273 273 276 279 282 284 285 286 283 283 286 289 289 289 291 291 289 288 289 289 285 279 275 276 280 284
254 256 259 262 264 264 264 264 264 264 262 261 261 260 258 257 256 256 256 255 256 256 255 255 256 257 259 260 261 261 262 264 267 269 270 271 271 270 269 269 267 266 266 266 266 265 265 266 268 268 266 266 268 269 268 268 268 266 264 267 272 274 274 276 278 280 281 281 281 280 281 283 287 288 287 289 292 291 289 288 289 287 282 277 277 280 283 282
255 255 257 259 261 262 264 265 265 265 264 264 265 265 264 262 261 261 260 258 257 257 257 257 258 259 259 260 260 261 262 264 265 266 267 268 268 268 267 267 266 266 265 264 262 262 264 266 267 267 266 267 268 267 266 266 266 265 266 270 273 274 275 276 278 279 280 279 279 279 280 284 286 287 288 292 291 288 285 284 285 284 281 277 277 280 278 274
Height
5912 5912 5912 5912 5912 5912 5912 5912 5912 5912 5912 5912 5912 5912 5912 5912 5912 5911 5911 5911 5911 5911 5911 5911 5910 5910 5910 5909 5909 5908 5907 5907 5906 5905 5905 5904 5903 5902 5901 5900 5900 5899 5898 5897 5896 5895 5894 5893 5892 5891 5889 5888 5887 5886 5885 5884 5883 5882 5882 5881 5880 5879 5878 5877 5876 5875 5874 5873 5871 5870 5868 5867 5866 5865 5864 5863 5862 5861 5860 5859 5859 5858 5857 5856 5856 5855 5855 5854
5911 5911 5911 5911 5911 5911 5911 5911 5911 5911 5910 5910 5910 5910 5910 5910 5910 5910 5910 5910 5910 5910 5909 5909 5909 5909 5908 5908 5908 5907 5907 5906 5905 5905 5904 5903 5902 5901 5900 5900 5899 5898 5897 5896 5895 5894 5893 5892 5891 5890 5889 5888 5886 5885 5884 5883 5882 5881 5880 5879 5878 5877 5877 5876 5875 5874 5872 5871 5870 5869 5867 5866 5865 5863 5862 5861 5860 5859 5859 5858 5857 5856 5855 5855 5854 5854 5853 5852
5909 5909 5909 5909 5910 5910 5910 5910 5910 5909 5909 5909 5909 5909 5908 5908 5909 5908 5908 5908 5908 5908 5908 5908 5907 5907 5907 5907 5906 5906 5906 5905 5904 5904 5903 5902 5901 5900 5899 5899 5898 5897 5896 5896 5895 5894 5893 5891 5890 5889 5888 5887 5886 5884 5883 5882 5881 5880 5879 5878 5876 5876 5875 5874 5873 5872 5871 5870 5869 5868 5866 5865 5864 5863 5861 5860 5859 5858 5857 5856 5855 5854 5854 5853 5852 5852 5851 5851
5906 5906 5907 5907 5907 5908 5908 5908 5908 5908 5908 5907 5907 5907 5907 5907 5907 5907 5907 5906 5906 5906 5906 5906 5906 5906 5905 5905 5905 5905 5904 5904 5903 5902 5902 5901 5900 5899 5898 5898 5897 5896 5895 5894 5894 5893 5892 5890 5889 5888 5887 5886 5885 5884 5882 5881 5880 5879 5878 5877 5875 5874 5873 5872 5871 5871 5870 5869 5867 5866 5865 5864 5863 5862 5860 5859 5858 5856 5855 5855 5854 5853 5852 5851 5850 5850 5849 5849
5903 5903 5904 5904 5904 5905 5905 5905 5905 5905 5905 5905 5905 5905 5905 5905 5905 5905 5905 5904 5904 5904 5904 5904 5904 5904 5903 5903 5903 5903 5902 5902 5901 5901 5900 5900 5899 5898 5897 5896 5896 5895 5894 5893 5892 5891 5890 5889 5888 5887 5886 5885 5884 5883 5881 5880 5879 5878 5876 5875 5874 5873 5872 5871 5870 5869 5868 5867 5866 5865 5864 5863 5862 5860 5859 5857 5856 5855 5854 5852 5852 5851 5850 5849 5848 5847 5847 5846
5900 5901 5901 5901 5901 5902 5902 5902 5902 5902 5903 5903 5902 5902 5902 5902 5902 5902 5902 5902 5902 5902 5902 5902 5902 5901 5901 5901 5901 5901 5900 5900 5899 5899 5898 5898 5897 5896 5896 5895 5894 5893 5892 5891 5890 5889 5888 5887 5886 5886 5885 5884 5883 5881 5880 5879 5878 5877 5875 5874 5873 5872 5870 5869 5868 5867 5866 5865 5864 5863 5862 5861 5860 5859 5857 5856 5855 5853 5852 5850 5850 5849 5848 5847 5846 5845 5844 5844
5897 5897 5898 5898 5898 5898 5899 5899 5899 5899 5899 5900 5900 5900 5899 5899 5899 5899 5899 5899 5899 5899 5899 5899 5899 5899 5899 5899 5899 5898 5898 5897 5897 5896 5896 5895 5895 5894 5894 5893 5892 5892 5891 5890 5889 5888 5886 5886 5885 5884 5883 5882 5881 5880 5879 5878 5876 5875 5874 5873 5871 5870 5869 5868 5867 5866 5865 5864 5863 5861 5860 5859 5858 5857 5856 5854 5853 5852 5850 5849 5848 5847 5845 5844 5843 5842 5841 5841
5894 5894 5894 5895 5895 5895 5895 5896 5896 5896 5896 5897 5897 5897 5897 5897 5896 5896 5896 5896 5896 5896 5896 5896 5896 5896 5896 5896 5896 5896 5895 5895 5895 5894 5893 5893 5892 5892 5892 5891 5891 5890 5889 5888 5887 5886 5885 5884 5883 5882 5881 5880 5879 5878 5877 5876 5875 5874 5872 5871 5870 5868 5867 5866 5865 5864 5863 5862 5861 5860 5858 5858 5856 5855 5854 5852 5851 5850 5849 5847 5846 5844 5843 5842 5841 5840 5839 5837
5890 5890 5891 5891 5892 5892 5892 5892 5892 5893 5893 5893 5893 5894 5894 5894 5894 5894 5894 5893 5893 5893 5893 5893 5893 5893 5893 5893 5892 5892 5892 5892 5892 5891 5891 5890 5890 5890 5889 5889 5888 5888 5887 5886 5885 5884 5883 5882 5881 5880 5879 5878 5877 5876 5875 5874 5873 5872 5871 5869 5868 5866 5865 5864 5863 5862 5861 5860 5859 5858 5856 5856 5854 5853 5851 5851 5849 5848 5847 5845 5844 5842 5841 5839 5838 5837 5836 5835
5886 5887 5887 5888 5888 5888 5888 5889 5889 5889 5889 5889 5890 5890 5890 5890 5890 5890 5890 5890 5890 5890 5890 5890 5890 5889 5889 5889 5889 5889 5889 5889 5888 5888 5888 5887 5887 5887 5887 5886 5886 5885 5885 5884 5883 5882 5881 5880 5879 5878 5877 5876 5875 5874 5873 5872 5871 5870 5869 5867 5866 5864 5863 5861 5860 5859 5858 5857 5857 5856 5855 5853 5852 5850 5849 5848 5847 5846 5845 5843 5842 5840 5839 5837 5836 5835 5833 5832
5883 5883 5883 5884 5884 5884 5884 5885 5885 5885 5885 5886 5886 5886 5887 5887 5887 5887 5887 5887 5887 5887 5887 5887 5886 5886 5886 5886 5886 5885 5885 5885 5885 5885 5885 5884 5884 5884 5884 5884 5883 5882 5882 5881 5881 5879 5879 5878 5877 5876 5875 5874 5873 5872 5871 5870 5868 5867 5866 5865 5864 5862 5861 5859 5858 5857 5855 5854 5854 5854 5854 5852 5849 5847 5847 5846 5845 5844 5843 5841 5839 5838 5837 5835 5833 5832 5831 5829
5879 5879 5880 5880 5880 5881 5881 5881 5881 5881 5881 5881 5882 5882 5883 5883 5883 5883 5883 5883 5883 5883 5883 5883 5883 5882 5883 5883 5882 5882 5882 5881 5881 5881 5881 5881 5881 5881 5881 5881 5880 5880 5879 5879 5878 5877 5876 5875 5874 5873 5873 5872 5871 5870 5869 5868 5866 5865 5863 5862 5861 5860 5859 5857 5855 5854 5853 5851 5850 5851 5853 5851 5846 5844 5843 5843 5843 5842 5841 5839 5837 5836 5834 5833 5831 5830 5828 5826
5876 5876 5876 5876 5877 5877 5877 5877 5877 5877 5877 5877 5878 5878 5878 5879 5879 5878 5879 5879 5879 5879 5879 5878 5878 5878 5879 5879 5879 5878 5879 5878 5878 5878 5878 5878 5878 5878 5878 5878 5877 5877 5876 5875 5875 5874 5873 5872 5871 5871 5870 5869 5868 5867 5866 5865 5864 5862 5861 5860 5858 5857 5856 5854 5853 5852 5850 5849 5847 5847 5850 5851 5846 5842 5840 5839 5839 5839 5838 5836 5834 5833 5831 5830 5828 5827 5825 5823
5871 5872 5872 5873 5873 5873 5873 5873 5873 5873 5874 5873 5873 5874 5874 5875 5874 5874 5874 5874 5874 5874 5874 5874 5874 5874 5874 5875 5875 5875 5875 5875 5874 5874 5875 5875 5875 5875 5875 5874 5874 5873 5872 5872 5871 5870 5870 5869 5868 5868 5867 5866 5865 5864 5863 5862 5861 5860 5858 5857 5856 5854 5853 5851 5850 5849 5847 5846 5844 5843 5845 5849 5846 5841 5838 5837 5836 5836 5835 5833 5831 5830 5828 5826 5825 5823 5822 5820
5867 5868 5868 5868 5868 5869 5869 5869 5869 5870 5870 5869 5869 5869 5870 5870 5870 5870 5870 5870 5870 5870 5869 5870 5869 5869 5870 5871 5871 5871 5871 5870 5870 5871 5871 5871 5872 5872 5871 5871 5870 5869 5869 5868 5868 5867 5866 5865 5865 5865 5864 5863 5862 5861 5860 5859 5858 5857 5855 5855 5854 5851 5850 5848 5847 5845 5843 5842 5842 5840 5840 5845 5845 5841 5837 5835 5834 5833 5832 5831 5828 5827 5825 5822 5821 5819 5818 5816
5863 5863 5864 5864 5864 5865 5865 5865 5865 5866 5865 5865 5865 5865 5865 5865 5866 5865 5865 5865 5865 5865 5865 5865 5865 5864 5865 5867 5867 5866 5866 5866 5866 5867 5867 5868 5868 5868 5867 5867 5866 5865 5865 5864 5863 5863 5862 5861 5861 5861 5860 5860 5859 5857 5856 5855 5855 5854 5852 5851 5851 5849 5847 5845 5843 5841 5839 5837 5838 5836 5835 5840 5842 5839 5836 5833 5832 5831 5830 5828 5826 5824 5821 5819 5816 5815 5814 5811
5858 5859 5859 5860 5860 5861 5861 5861 5861 5862 5862 5861 5860 5860 5859 5860 5861 5860 5861 5861 5860 5861 5860 5861 5861 5859 5860 5862 5863 5862 5862 5862 5862 5863 5864 5864 5863 5863 5863 5862 5862 5861 5860 5860 5859 5859 5858 5857 5857 5857 5857 5857 5855 5853 5851 5851 5852 5850 5848 5848 5847 5846 5844 5843 5840 5837 5834 5833 5833 5832 5831 5834 5837 5836 5834 5831 5829 5828 5827 5825 5823 5821 5818 5815 5813 5811 5810 5807
5854 5854 5854 5855 5856 5856 5856 5856 5857 5857 5857 5856 5856 5856 5855 5855 5856 5856 5856 5856 5855 5856 5855 5856 5856 5854 5856 5858 5858 5858 5857 5858 5859 5859 5859 5859 5859 5858 5858 5857 5857 5856 5856 5855 5855 5854 5853 5853 5853 5853 5854 5853 5851 5848 5847 5848 5848 5846 5845 5844 5843 5842 5841 5840 5836 5832 5830 5828 5829 5827 5825 5828 5831 5832 5831 5828 5826 5825 5824 5822 5820 5818 5815 5812 5810 5808 5806 5804
5850 5850 5850 5851 5851 5851 5851 5851 5852 5852 5853 5852 5851 5851 5851 5850 5850 5851 5851 5851 5851 5851 5851 5851 5850 5850 5851 5853 5853 5853 5853 5854 5854 5855 5855 5855 5854 5853 5853 5852 5852 5852 5851 5851 5850 5849 5848 5848 5849 5850 5851 5849 5846 5844 5844 5844 5843 5841 5841 5839 5838 5837 5837 5837 5832 5828 5826 5822 5824 5823 5819 5821 5825 5827 5827 5825 5823 5821 5821 5819 5816 5814 5812 5808 5806 5804 5802 5800
5845 5845 5845 5846 5846 5846 5846 5845 5846 5847 5848 5848 5847 5846 5846 5845 5845 5846 5846 5846 5846 5846 5846 5845 5845 5846 5847 5847 5848 5848 5849 5849 5849 5850 5850 5850 5849 5848 5848 5848 5847 5847 5847 5846 5844 5844 5843 5842 5845 5847 5846 5843 5841 5840 5840 5839 5838 5837 5836 5834 5833 5832 5833 5833 5827 5824 5822 5816 5818 5819 5813 5815 5819 5821 5822 5821 5819 5818 5817 5815 5813 5811 5808 5805 5802 5800 5798 5796
5840 5840 5841 5841 5841 5841 5840 5840 5841 5842 5842 5843 5842 5841 5841 5841 5840 5840 5841 5841 5841 5841 5841 5840 5840 5841 5843 5843 5843 5844 5844 5845 5846 5846 5846 5845 5845 5843 5843 5843 5842 5842 5842 5841 5839 5839 5838 5837 5841 5843 5840 5838 5837 5836 5835 5834 5833 5831 5830 5829 5828 5828 5828 5826 5822 5820 5818 5812 5813 5814 5808 5809 5814 5815 5817 5816 5813 5814 5812 5810 5809 5807 5804 5801 5799 5796 5794 5792
5835 5835 5836 5836 5836 5836 5835 5835 5836 5837 5837 5837 5837 5836 5836 5835 5835 5835 5834 5834 5836 5837 5835 5835 5835 5836 5838 5837 5839 5840 5840 5841 5842 5842 5842 5841 5840 5838 5838 5838 5837 5837 5837 5835 5834 5833 5831 5832 5837 5837 5834 5833 5832 5830 5830 5828 5827 5826 5825 5823 5823 5824 5821 5819 5818 5816 5813 5808 5807 5807 5802 5803 5808 5809 5812 5811 5807 5808 5808 5806 5804 5803 5800 5797 5795 5793 5790 5788
5829 5830 5830 5831 5831 5830 5830 5830 5831 5831 5831 5831 5831 5831 5830 5830 5829 5829 5827 5825 5829 5832 5830 5829 5830 5830 5832 5833 5834 5836 5836 5837 5838 5838 5838 5836 5835 5834 5832 5833 5833 5831 5831 5831 5830 5826 5825 5829 5832 5830 5829 5828 5826 5826 5825 5823 5822 5820 5819 5818 5818 5819 5815 5811 5812 5811 5808 5804 5801 5800 5794 5796 5801 5802 5806 5808 5803 5801 5801 5802 5801 5798 5796 5794 5791 5789 5786 5783
5823 5824 5824 5825 5826 5825 5825 5825 5825 5825 5825 5826 5825 5825 5825 5825 5824 5823 5821 5816 5817 5824 5826 5825 5824 5824 5826 5828 5830 5832 5832 5833 5834 5834 5834 5831 5830 5829 5827 5828 5827 5826 5827 5827 5824 5820 5821 5825 5826 5825 5824 5822 5821 5821 5820 5818 5816 5814 5814 5814 5813 5812 5809 5806 5805 5804 5802 5800 5797 5794 5786 5786 5792 5795 5800 5804 5802 5797 5793 5795 5797 5794 5791 5789 5787 5785 5782 5779
5818 5818 5819 5820 5820 5820 5820 5819 5820 5820 5820 5820 5819 5819 5819 5819 5819 5817 5816 5809 5803 5812 5820 5819 5818 5818 5820 5822 5824 5827 5827 5827 5829 5830 5829 5827 5826 5824 5823 5823 5821 5821 5823 5821 5817 5814 5817 5821 5820 5819 5819 5817 5816 5815 5816 5814 5810 5807 5808 5809 5808 5805 5803 5801 5799 5797 5794 5793 5793 5789 5782 5777 5779 5783 5790 5795 5797 5796 5791 5787 5788 5788 5785 5783 5782 5780 5778 5775
5812 5812 5813 5814 5814 5815 5814 5814 5815 5815 5814 5814 5814 5814 5813 5813 5813 5812 5810 5802 5792 5799 5809 5809 5811 5814 5816 5819 5820 5822 5821 5822 5825 5825 5823 5822 5821 5819 5818 5818 5817 5817 5817 5815 5811 5809 5813 5817 5814 5814 5813 5812 5811 5811 5812 5810 5804 5801 5803 5805 5803 5800 5798 5796 5794 5792 5788 5787 5786 5784 5782 5773 5766 5770 5780 5785 5786 5789 5789 5785 5780 5779 5779 5777 5775 5774 5772 5770
5806 5807 5807 5808 5809 5809 5809 5808 5809 5809 5809 5809 5808 5809 5808 5808 5807 5806 5805 5794 5782 5787 5796 5798 5802 5808 5812 5816 5817 5818 5816 5817 5820 5818 5817 5816 5815 5814 5812 5812 5813 5811 5811 5809 5804 5805 5809 5810 5809 5808 5807 5806 5806 5807 5807 5805 5799 5796 5797 5799 5797 5795 5794 5791 5789 5786 5783 5782 5777 5778 5783 5771 5754 5758 5771 5777 5779 5780 5783 5783 5776 5771 5771 5771 5769 5767 5766 5764
5800 5801 5801 5802 5802 5803 5803 5803 5803 5803 5803 5803 5804 5803 5802 5803 5802 5801 5799 5787 5773 5776 5785 5790 5794 5799 5805 5810 5812 5814 5813 5812 5812 5811 5812 5810 5809 5808 5807 5807 5807 5805 5805 5802 5799 5801 5804 5803 5803 5803 5801 5801 5802 5801 5801 5799 5795 5792 5792 5792 5791 5791 5789 5786 5784 5781 5779 5776 5769 5773 5781 5768 5748 5750 5760 5767 5773 5775 5776 5778 5774 5766 5763 5763 5762 5761 5760 5759
5794 5795 5795 5796 5796 5796 5797 5797 5797 5797 5797 5798 5798 5797 5797 5798 5796 5796 5792 5778 5767 5769 5778 5785 5790 5792 5796 5801 5805 5808 5808 5807 5805 5804 5805 5804 5803 5802 5801 5801 5800 5798 5799 5796 5794 5796 5798 5797 5797 5796 5797 5797 5797 5795 5794 5792 5790 5788 5787 5786 5785 5784 5782 5780 5778 5776 5775 5769 5764 5770 5775 5765 5747 5741 5749 5759 5765 5767 5768 5771 5770 5764 5759 5757 5756 5755 5754 5754
5788 5789 5790 5790 5790 5790 5791 5791 5791 5791 5791 5791 5791 5791 5792 5791 5790 5789 5779 5766 5766 5770 5774 5779 5785 5788 5790 5793 5796 5798 5799 5800 5799 5799 5798 5797 5797 5796 5795 5794 5793 5792 5792 5790 5790 5792 5792 5791 5791 5791 5792 5792 5791 5790 5788 5787 5785 5784 5783 5780 5779 5778 5775 5774 5771 5771 5769 5761 5760 5766 5767 5762 5747 5734 5741 5753 5757 5758 5761 5763 5763 5760 5756 5752 5750 5749 5748 5747
5782 5783 5784 5784 5784 5784 5784 5785 5784 5785 5785 5785 5784 5785 5785 5784 5784 5778 5763 5759 5768 5772 5771 5774 5778 5782 5785 5785 5787 5788 5790 5791 5792 5792 5791 5791 5790 5788 5788 5788 5787 5786 5784 5784 5785 5787 5786 5785 5785 5786 5786 5785 5785 5784 5783 5782 5780 5779 5778 5776 5774 5771 5768 5766 5765 5765 5762 5755 5756 5758 5758 5754 5741 5733 5741 5748 5748 5751 5753 5755 5757 5754 5751 5747 5744 5742 5741 5740
5775 5776 5777 5778 5778 5778 5778 5778 5778 5778 5778 5777 5778 5778 5778 5777 5773 5763 5756 5762 5767 5766 5769 5772 5772 5775 5777 5777 5779 5780 5781 5782 5783 5784 5784 5784 5782 5781 5781 5781 5780 5779 5777 5778 5780 5779 5779 5779 5779 5778 5779 5780 5779 5778 5777 5776 5775 5774 5772 5770 5768 5764 5761 5759 5759 5759 5754 5751 5751 5750 5747 5741 5732 5733 5742 5742 5742 5746 5746 5748 5751 5748 5746 5743 5738 5736 5734 5732
5768 5769 5771 5771 5771 5771 5771 5771 5771 5771 5770 5771 5770 5770 5771 5768 5759 5753 5756 5763 5764 5763 5766 5767 5766 5768 5769 5770 5772 5772 5773 5774 5774 5775 5775 5775 5774 5774 5774 5774 5774 5774 5772 5772 5772 5771 5771 5772 5772 5772 5773 5774 5772 5772 5771 5769 5769 5767 5765 5764 5761 5758 5755 5753 5754 5751 5746 5744 5745 5743 5738 5730 5726 5731 5737 5734 5736 5741 5742 5743 5744 5741 5741 5739 5735 5730 5726 5724
5760 5762 5763 5764 5765 5765 5764 5763 5763 5764 5763 5763 5763 5764 5764 5757 5749 5750 5756 5760 5761 5762 5761 5760 5760 5762 5761 5761 5762 5764 5765 5766 5766 5767 5767 5767 5766 5766 5767 5768 5768 5768 5767 5765 5764 5764 5763 5763 5765 5766 5766 5767 5765 5765 5764 5762 5761 5759 5758 5757 5753 5753 5752 5749 5748 5743 5738 5738 5736 5732 5728 5723 5722 5726 5727 5723 5726 5734 5738 5738 5737 5736 5735 5733 5729 5725 5720 5717
5752 5753 5755 5757 5758 5758 5757 5755 5755 5755 5754 5755 5755 5755 5753 5748 5746 5749 5752 5753 5755 5756 5756 5756 5756 5755 5754 5754 5754 5757 5759 5758 5759 5760 5758 5758 5759 5759 5760 5761 5762 5762 5761 5759 5758 5758 5756 5755 5758 5757 5757 5760 5759 5758 5757 5755 5753 5751 5751 5748 5746 5749 5748 5743 5740 5737 5734 5732 5727 5722 5719 5720 5721 5720 5718 5714 5717 5727 5732 5731 5730 5729 5728 5726 5722 5718 5714 5711
5742 5744 5746 5749 5751 5750 5747 5747 5747 5746 5746 5746 5743 5743 5745 5744 5745 5746 5746 5746 5747 5748 5749 5750 5750 5749 5747 5747 5748 5751 5752 5751 5751 5751 5750 5751 5752 5751 5751 5753 5755 5755 5754 5753 5752 5752 5749 5747 5750 5749 5748 5751 5750 5749 5750 5748 5745 5745 5744 5742 5742 5743 5740 5734 5731 5732 5730 5724 5720 5716 5712 5714 5715 5711 5710 5710 5712 5721 5725 5724 5724 5723 5720 5717 5713 5710 5708 5705
5733 5734 5736 5741 5744 5740 5736 5737 5738 5736 5736 5734 5733 5736 5740 5740 5740 5741 5741 5741 5740 5740 5741 5741 5742 5741 5740 5740 5741 5743 5743 5743 5742 5742 5742 5743 5743 5743 5745 5746 5748 5747 5748 5747 5745 5744 5742 5740 5743 5742 5739 5741 5741 5741 5742 5740 5738 5737 5737 5738 5737 5733 5730 5728 5725 5726 5724 5717 5715 5714 5709 5707 5705 5702 5703 5706 5708 5713 5717 5717 5717 5715 5713 5710 5707 5704 5702 5698
5723 5723 5725 5732 5735 5730 5727 5727 5727 5726 5723 5721 5725 5732 5734 5733 5736 5737 5736 5735 5734 5734 5732 5731 5731 5732 5733 5733 5732 5733 5734 5734 5735 5734 5735 5735 5733 5734 5737 5739 5740 5741 5742 5740 5736 5737 5736 5732 5734 5735 5731 5732 5734 5733 5731 5730 5730 5730 5731 5731 5729 5724 5722 5722 5719 5718 5717 5712 5707 5709 5707 5698 5695 5697 5699 5701 5705 5707 5710 5710 5707 5705 5703 5701 5700 5698 5695 5691
5713 5709 5712 5724 5726 5720 5718 5716 5715 5714 5709 5710 5719 5725 5727 5728 5729 5730 5730 5729 5728 5725 5723 5723 5723 5723 5724 5725 5724 5726 5726 5726 5728 5728 5727 5726 5724 5725 5728 5730 5731 5733 5736 5732 5728 5729 5728 5723 5723 5726 5725 5725 5725 5723 5723 5724 5725 5723 5722 5721 5719 5716 5714 5713 5713 5711 5710 5706 5701 5703 5700 5688 5685 5692 5693 5697 5705 5706 5705 5704 5699 5695 5693 5692 5691 5690 5687 5683
5703 5698 5700 5713 5713 5708 5708 5704 5701 5700 5697 5704 5714 5716 5717 5719 5720 5722 5723 5721 5719 5717 5716 5716 5716 5715 5715 5716 5717 5719 5718 5717 5720 5720 5718 5718 5718 5717 5720 5721 5722 5725 5726 5724 5721 5720 5718 5714 5714 5717 5717 5716 5716 5717 5718 5719 5716 5713 5712 5711 5709 5709 5707 5705 5704 5704 5702 5699 5697 5697 5691 5679 5677 5682 5684 5692 5702 5702 5699 5698 5692 5688 5686 5684 5682 5680 5678 5674
5695 5686 5689 5702 5699 5696 5698 5690 5687 5689 5688 5695 5705 5704 5705 5709 5712 5714 5714 5711 5709 5709 5709 5709 5708 5708 5709 5709 5709 5711 5711 5709 5710 5710 5708 5710 5712 5711 5713 5714 5714 5716 5715 5713 5712 5711 5708 5704 5703 5705 5706 5707 5710 5712 5710 5708 5705 5703 5702 5702 5702 5702 5701 5695 5692 5696 5695 5692 5691 5689 5681 5674 5673 5675 5679 5688 5693 5692 5692 5690 5685 5682 5678 5676 5675 5672 5669 5666
5684 5676 5680 5688 5686 5687 5686 5676 5676 5680 5678 5686 5694 5693 5694 5699 5702 5703 5702 5701 5699 5699 5700 5700 5701 5702 5701 5701 5702 5703 5701 5700 5701 5700 5698 5701 5704 5705 5707 5707 5705 5706 5705 5702 5702 5703 5699 5693 5692 5693 5696 5700 5703 5703 5700 5696 5694 5693 5691 5695 5696 5695 5693 5687 5683 5688 5687 5682 5681 5676 5668 5668 5672 5674 5682 5687 5685 5684 5684 5681 5678 5675 5670 5668 5666 5663 5660 5658
5672 5669 5671 5674 5673 5676 5674 5665 5666 5668 5668 5678 5683 5681 5683 5687 5689 5691 5691 5690 5689 5690 5691 5691 5692 5693 5693 5694 5693 5692 5692 5690 5690 5690 5689 5691 5696 5699 5700 5699 5696 5695 5695 5693 5694 5696 5690 5683 5683 5683 5685 5690 5692 5692 5690 5686 5683 5682 5684 5689 5689 5685 5686 5681 5676 5677 5674 5671 5671 5663 5653 5660 5670 5675 5683 5684 5680 5678 5678 5675 5672 5667 5663 5662 5659 5655 5653 5650
5663 5660 5659 5660 5661 5662 5659 5656 5658 5659 5661 5668 5670 5669 5671 5673 5676 5681 5681 5679 5679 5681 5681 5681 5683 5683 5684 5686 5684 5684 5684 5679 5678 5681 5681 5682 5687 5691 5692 5690 5687 5686 5686 5685 5686 5685 5681 5676 5676 5675 5673 5676 5680 5679 5678 5677 5676 5677 5678 5680 5677 5676 5676 5671 5667 5666 5658 5658 5662 5651 5640 5651 5666 5673 5677 5677 5672 5672 5672 5669 5665 5660 5657 5655 5651 5647 5645 5643
5654 5649 5646 5647 5647 5645 5646 5650 5651 5650 5653 5657 5656 5658 5660 5660 5665 5672 5671 5669 5671 5672 5670 5670 5673 5673 5675 5676 5674 5674 5673 5670 5669 5672 5673 5675 5678 5681 5681 5679 5678 5678 5677 5677 5675 5673 5670 5667 5667 5665 5661 5661 5665 5668 5670 5670 5668 5667 5669 5669 5667 5667 5666 5661 5659 5654 5644 5644 5650 5641 5631 5640 5657 5665 5667 5666 5664 5664 5665 5660 5655 5653 5649 5645 5642 5640 5638 5635
5642 5636 5635 5637 5634 5629 5633 5641 5641 5638 5642 5646 5644 5646 5650 5650 5656 5662 5660 5659 5662 5662 5658 5658 5662 5664 5665 5665 5663 5663 5664 5664 5663 5663 5666 5669 5669 5669 5668 5667 5669 5669 5668 5667 5665 5661 5657 5655 5655 5654 5650 5649 5653 5659 5664 5662 5656 5655 5658 5659 5658 5658 5657 5653 5648 5641 5635 5633 5634 5635 5632 5631 5643 5654 5655 5655 5656 5655 5655 5651 5645 5644 5640 5635 5634 5632 5629 5627
5626 5621 5624 5628 5624 5617 5618 5627 5630 5627 5631 5633 5630 5634 5640 5642 5645 5647 5647 5649 5652 5651 5648 5649 5653 5653 5654 5656 5655 5654 5657 5657 5654 5655 5659 5663 5662 5658 5656 5656 5657 5658 5658 5658 5654 5650 5644 5640 5643 5643 5640 5641 5644 5649 5654 5651 5644 5644 5647 5647 5648 5649 5647 5643 5635 5630 5631 5624 5618 5630 5636 5625 5627 5641 5644 5645 5649 5647 5644 5641 5637 5634 5631 5627 5625 5623 5621 5619
5613 5609 5613 5617 5611 5604 5606 5615 5621 5618 5617 5619 5618 5621 5628 5629 5631 5634 5638 5640 5640 5639 5638 5639 5642 5644 5646 5649 5646 5644 5648 5648 5645 5648 5652 5654 5653 5647 5645 5647 5646 5647 5648 5646 5642 5640 5632 5627 5632 5633 5629 5632 5635 5638 5642 5640 5634 5634 5636 5636 5639 5641 5638 5633 5626 5624 5625 5615 5609 5623 5629 5618 5618 5629 5633 5636 5638 5635 5633 5631 5628 5625 5622 5619 5616 5614 5613 5611
5603 5598 5601 5603 5596 5593 5598 5606 5610 5606 5603 5606 5605 5606 5613 5617 5620 5627 5630 5627 5624 5629 5630 5628 5632 5637 5638 5639 5638 5634 5637 5639 5637 5640 5643 5642 5640 5638 5636 5637 5636 5636 5636 5633 5631 5629 5621 5617 5623 5625 5619 5621 5625 5627 5630 5628 5623 5623 5626 5626 5630 5633 5629 5623 5619 5619 5618 5608 5606 5613 5612 5607 5614 5622 5624 5626 5626 5623 5622 5621 5619 5616 5614 5610 5606 5603 5603 5603
5594 5590 5591 5589 5582 5583 5587 5591 5593 5591 5591 5594 5591 5592 5602 5606 5610 5618 5619 5614 5613 5619 5620 5618 5623 5629 5628 5627 5625 5621 5625 5631 5629 5630 5634 5630 5627 5627 5625 5625 5626 5625 5623 5622 5621 5617 5612 5609 5614 5617 5608 5605 5613 5619 5619 5617 5611 5609 5612 5616 5621 5623 5619 5614 5614 5617 5613 5604 5602 5602 5594 5595 5610 5617 5614 5613 5613 5612 5611 5610 5610 5609 5606 5600 5594 5594 5595 5594
5584 5582 5582 5577 5569 5571 5574 5575 5578 5577 5577 5579 5580 5585 5592 5594 5602 5609 5606 5602 5604 5607 5609 5610 5614 5618 5616 5613 5611 5612 5620 5624 5619 5619 5624 5620 5613 5612 5612 5613 5616 5614 5612 5613 5611 5607 5604 5601 5605 5607 5594 5590 5605 5611 5607 5604 5597 5591 5598 5609 5615 5614 5610 5608 5609 5609 5605 5598 5595 5592 5585 5588 5602 5607 5603 5602 5603 5601 5600 5600 5600 5599 5596 5589 5585 5586 5588 5587
5572 5569 5571 5568 5559 5559 5563 5565 5566 5563 5562 5568 5574 5578 5579 5583 5593 5597 5589 5587 5594 5599 5602 5603 5603 5604 5600 5598 5603 5610 5615 5612 5606 5606 5610 5607 5601 5599 5600 5602 5604 5603 5603 5604 5600 5598 5596 5593 5595 5595 5582 5582 5597 5599 5594 5591 5579 5575 5592 5606 5607 5605 5603 5601 5600 5598 5596 5591 5586 5582 5581 5587 5595 5596 5592 5593 5593 5589 5587 5588 5589 5587 5583 5578 5577 5580 5581 5579